Weather History for Menomonie, WI

Change the Weather History Date:

Monday, January 14, 2013

  Actual Average (KEAU) Record (KEAU)
Temperature  
Mean Temperature 10 °F 14 °F  
Max Temperature 15 °F 23 °F 42 °F (1914)
Min Temperature 5 °F 5 °F -29 °F (1893)
Degree Days  
Heating Degree Days 55 51  
Month to date heating degree days 709  
Since 1 July heating degree days 3885  
Cooling Degree Days 0 0  
Month to date cooling degree days 0  
Year to date cooling degree days 0  
Moisture  
Dew Point 3 °F    
Average Humidity 76    
Maximum Humidity 85    
Minimum Humidity 62    
Precipitation  
Precipitation 0.00 in 0.03 in 0.85 in (2014)
Month to date precipitation 0.39  
Year to date precipitation 0.39  
Snow  
Snow 0.00 in 0.40 in 9.00 in (2014)
Month to date snowfall 5.5  
Since 1 July snowfall 21.3  
Snow Depth -    
Sea Level Pressure  
Sea Level Pressure 30.33 in    
Wind  
Wind Speed 5 mph (SW)    
Max Wind Speed 12 mph    
Max Gust Speed 17 mph    
Visibility 9 miles    
Events Snow    
T = Trace of Precipitation, MM = Missing Value Source: NWS Daily Summary

Daily Weather History Graph

Daily Weather History Graph

Search for Another Location

Airport:

Trip Planner

Search our weather history database for the weather conditions in past years. The results will help you decide how hot, cold, wet, or windy it might be!

Date:

Astronomy

Jan. 14, 2013 Rise Set
Actual Time 7:42 AM CST 4:51 PM CST
Civil Twilight 7:09 AM CST 5:24 PM CST
Nautical Twilight 6:33 AM CST 6:00 PM CST
Astronomical Twilight 5:57 AM CST 6:35 PM CST
Moon 9:05 AM CST (1/14) 8:49 PM CST (1/14)
Length of Visible Light 10h 14m
Length of Day
9h 09m
Waxing Crescent, 11% of the Moon is Illuminated
Jan 14
Waxing Crescent
Jan 18
First Quarter
Jan 26
Full
Feb 3
Last Quarter
Feb 10
New

Hourly Weather History & Observations

Time (CST) Temp. Windchill Dew Point Humidity Pressure Visibility Wind Dir Wind Speed Gust Speed Precip Events Conditions
12:15 AM 5.0 °F -4.1 °F -0.4 °F 78% 30.22 in 10.0 mi WSW 4.6 mph - N/A   Clear
12:35 AM 5.0 °F -5.6 °F -0.4 °F 78% 30.23 in 10.0 mi WSW 5.8 mph - N/A   Clear
1:15 AM 5.0 °F -5.6 °F -0.4 °F 78% 30.23 in 10.0 mi SW 5.8 mph - N/A   Clear
1:35 AM 5.0 °F -4.1 °F -0.4 °F 78% 30.24 in 10.0 mi WSW 4.6 mph - N/A   Clear
1:55 AM 5.0 °F -4.1 °F -0.4 °F 78% 30.25 in 10.0 mi WSW 4.6 mph - N/A   Clear
2:15 AM 5.0 °F -4.1 °F -0.4 °F 78% 30.25 in 10.0 mi SW 4.6 mph - N/A   Clear
2:35 AM 5.0 °F -2.1 °F -0.4 °F 78% 30.26 in 10.0 mi WSW 3.5 mph - N/A   Clear
2:55 AM 5.0 °F -4.1 °F -0.4 °F 78% 30.26 in 10.0 mi SW 4.6 mph - N/A   Clear
3:15 AM 5.0 °F -2.1 °F -0.4 °F 78% 30.27 in 10.0 mi South 3.5 mph - N/A   Clear
3:35 AM 5.0 °F -4.1 °F -0.4 °F 78% 30.27 in 10.0 mi SSW 4.6 mph - N/A   Clear
3:55 AM 5.0 °F - -0.4 °F 78% 30.26 in 10.0 mi Calm Calm - N/A   Clear
4:15 AM 5.0 °F -2.1 °F -0.4 °F 78% 30.27 in 10.0 mi South 3.5 mph - N/A   Clear
4:35 AM 5.0 °F - -0.4 °F 78% 30.26 in 10.0 mi Calm Calm - N/A   Clear
5:15 AM 5.0 °F -4.1 °F -0.4 °F 78% 30.27 in 10.0 mi SW 4.6 mph - N/A   Clear
5:55 AM 5.0 °F -5.6 °F 1.4 °F 85% 30.29 in 10.0 mi SW 5.8 mph - N/A   Clear
6:15 AM 5.0 °F -6.9 °F 1.4 °F 85% 30.30 in 10.0 mi SW 6.9 mph - N/A   Clear
6:35 AM 5.0 °F -2.1 °F 1.4 °F 85% 30.31 in 10.0 mi SW 3.5 mph - N/A   Clear
6:55 AM 5.0 °F - 1.4 °F 85% 30.32 in 10.0 mi Calm Calm - N/A   Clear
7:15 AM 5.0 °F -2.1 °F 1.4 °F 85% 30.32 in 10.0 mi SSW 3.5 mph - N/A   Clear
7:35 AM 5.0 °F -6.9 °F 1.4 °F 85% 30.34 in 10.0 mi South 6.9 mph - N/A   Clear
7:55 AM 5.0 °F -5.6 °F 1.4 °F 85% 30.35 in 10.0 mi South 5.8 mph - N/A   Clear
8:15 AM 5.0 °F -4.1 °F 1.4 °F 85% 30.36 in 10.0 mi SSW 4.6 mph - N/A   Clear
8:55 AM 8.6 °F 0.1 °F 3.2 °F 79% 30.37 in 10.0 mi SSW 4.6 mph - N/A   Mostly Cloudy
9:15 AM 8.6 °F 0.1 °F 3.2 °F 79% 30.37 in 10.0 mi SSW 4.6 mph - N/A   Overcast
9:35 AM 8.6 °F -1.3 °F 3.2 °F 79% 30.37 in 7.0 mi SW 5.8 mph - N/A Snow Light Snow
9:55 AM 10.4 °F 0.8 °F 5.0 °F 79% 30.37 in 7.0 mi SW 5.8 mph - N/A Snow Light Snow
10:15 AM 10.4 °F 0.8 °F 5.0 °F 79% 30.37 in 10.0 mi WSW 5.8 mph - N/A Snow Light Snow
10:35 AM 12.2 °F -1.0 °F 5.0 °F 73% 30.37 in 7.0 mi West 10.4 mph - N/A Snow Light Snow
10:55 AM 12.2 °F -1.0 °F 5.0 °F 73% 30.38 in 7.0 mi WSW 10.4 mph - N/A Snow Light Snow
11:15 AM 12.2 °F 0.7 °F 5.0 °F 73% 30.37 in 5.0 mi West 8.1 mph 16.1 mph N/A Snow Light Snow
11:35 AM 12.2 °F -0.2 °F 5.0 °F 73% 30.37 in 7.0 mi West 9.2 mph - N/A   Overcast
11:55 AM 12.2 °F -1.0 °F 5.0 °F 73% 30.36 in 7.0 mi West 10.4 mph - N/A   Overcast
12:15 PM 14.0 °F 2.9 °F 5.0 °F 67% 30.35 in 5.0 mi West 8.1 mph - N/A   Haze
12:35 PM 14.0 °F 2.9 °F 5.0 °F 67% 30.35 in 5.0 mi West 8.1 mph - N/A Snow Light Snow
1:15 PM 14.0 °F 2.0 °F 5.0 °F 67% 30.35 in 7.0 mi West 9.2 mph - N/A Snow Light Snow
1:35 PM 14.0 °F 0.5 °F 5.0 °F 67% 30.35 in 10.0 mi SW 11.5 mph - N/A   Overcast
1:55 PM 15.8 °F 3.4 °F 5.0 °F 62% 30.35 in 10.0 mi SW 10.4 mph 17.3 mph N/A   Mostly Cloudy
2:15 PM 14.0 °F 1.2 °F 5.0 °F 67% 30.36 in 10.0 mi WSW 10.4 mph - N/A   Mostly Cloudy
2:35 PM 14.0 °F 3.9 °F 5.0 °F 67% 30.36 in 10.0 mi WSW 6.9 mph - N/A   Overcast
3:15 PM 14.0 °F 2.9 °F 5.0 °F 67% 30.36 in 10.0 mi West 8.1 mph - N/A   Overcast
3:35 PM 14.0 °F 3.9 °F 5.0 °F 67% 30.37 in 10.0 mi WSW 6.9 mph - N/A   Overcast
3:55 PM 14.0 °F 6.5 °F 5.0 °F 67% 30.37 in 10.0 mi West 4.6 mph - N/A   Overcast
4:15 PM 14.0 °F 6.5 °F 5.0 °F 67% 30.37 in 10.0 mi WSW 4.6 mph - N/A   Overcast
4:35 PM 14.0 °F 6.5 °F 3.2 °F 62% 30.37 in 10.0 mi WSW 4.6 mph - N/A   Scattered Clouds
4:55 PM 14.0 °F 5.1 °F 3.2 °F 62% 30.37 in 10.0 mi WSW 5.8 mph - N/A   Clear
5:15 PM 12.2 °F 4.3 °F 3.2 °F 67% 30.37 in 10.0 mi WSW 4.6 mph - N/A   Clear
5:35 PM 12.2 °F - 3.2 °F 67% 30.37 in 10.0 mi Calm Calm - N/A   Clear
5:55 PM 12.2 °F 6.1 °F 3.2 °F 67% 30.38 in 10.0 mi SSW 3.5 mph - N/A   Clear
6:15 PM 12.2 °F - 3.2 °F 67% 30.37 in 10.0 mi Calm Calm - N/A   Clear
6:35 PM 12.2 °F - 3.2 °F 67% 30.37 in 10.0 mi Calm Calm - N/A   Clear
6:55 PM 10.4 °F 4.0 °F 3.2 °F 73% 30.37 in 10.0 mi South 3.5 mph - N/A   Clear
7:15 PM 10.4 °F - 3.2 °F 73% 30.37 in 10.0 mi Calm Calm - N/A   Clear
7:35 PM 10.4 °F - 3.2 °F 73% 30.37 in 10.0 mi Calm Calm - N/A   Clear
8:15 PM 8.6 °F 2.0 °F 1.4 °F 73% 30.36 in 10.0 mi SE 3.5 mph - N/A   Scattered Clouds
8:35 PM 8.6 °F - 3.2 °F 79% 30.35 in 10.0 mi Calm Calm - N/A   Mostly Cloudy
8:55 PM 8.6 °F 2.0 °F 3.2 °F 79% 30.35 in 10.0 mi SE 3.5 mph - N/A   Scattered Clouds
9:15 PM 6.8 °F - 3.2 °F 85% 30.35 in 10.0 mi Calm Calm - N/A   Clear
9:35 PM 8.6 °F 2.0 °F 3.2 °F 79% 30.34 in 10.0 mi ESE 3.5 mph - N/A   Clear
9:55 PM 6.8 °F -0.1 °F 3.2 °F 85% 30.34 in 10.0 mi SE 3.5 mph - N/A   Scattered Clouds
10:15 PM 6.8 °F - 3.2 °F 85% 30.33 in 10.0 mi Calm Calm - N/A   Scattered Clouds
10:35 PM 6.8 °F - 3.2 °F 85% 30.33 in 10.0 mi Calm Calm - N/A   Clear
10:55 PM 5.0 °F -2.1 °F 1.4 °F 85% 30.32 in 10.0 mi East 3.5 mph - N/A   Clear
11:15 PM 6.8 °F -0.1 °F 3.2 °F 85% 30.32 in 10.0 mi ESE 3.5 mph - N/A   Clear
11:55 PM 5.0 °F -5.6 °F 1.4 °F 85% 30.32 in 10.0 mi ESE 5.8 mph - N/A   Clear